Location: Follega
(52.8850°N, 5.7362°E)
Time: 11:00:15
(UTC+00:00)

CARTOSAT-1 - Pass Details

Date: 09 October 2020
Orbit: 616 x 619 km, 97.8° (Epoch: 20 October)

Event Time Altitude Azimuth Distance (km) Brightness Sun altitude
Exits shadow 19:54:16 15° 17° (NNE) 1,698 5.9 -27.2°
Drops below altitude 10° 19:55:14 10° 8° (N) 1,993 6.4 -27.4°
Sets 19:57:44 0° 355° (N) 2,903 7.4 -27.7°
